Regional Weather Roundup
Issued by NWS

Home | Current Version | Previous Version | Text Only | Print | Product List | Glossary Off
Versions: 1 2 3 4 5 6 7 8 9 10 11 12 13 14 15 16 17 18 19 20 21 22 23 24 25 26 27 28 29 30 31 32 33 34 35 36 37 38 39 40 41 42 43 44 45 46 47 48 49 50

000
ASUS45 KPSR 220910
RWRAZ

ARIZONA REGIONAL HOURLY WEATHER ROUNDUP
NATIONAL WEATHER SERVICE PHOENIX AZ
200 AM MST TUE JUL 22 2014

NOTE: FAIR INDICATES FEW OR NO CLOUDS BELOW 12,000 FEET WITH NO
SIGNIFICANT WEATHER AND/OR OBSTRUCTIONS TO VISIBILITY.

AZZ001>003-036-221000-
NORTHWEST ARIZONA

CITY           SKY/WX    TMP DP  RH WIND       PRES   REMARKS
BULLHEAD CITY  CLEAR     86  37  17 CALM      29.89S
KINGMAN        CLEAR     74  37  26 CALM      30.10S
$$

AZZ004>008-015-016-018-221000-
NORTH CENTRAL ARIZONA

CITY           SKY/WX    TMP DP  RH WIND       PRES   REMARKS
GRAND CANYON   CLEAR     50  33  52 CALM      30.37S
WILLIAMS       CLEAR     54  37  54 SE8       30.43S
PRESCOTT       CLEAR     66  44  45 S6        30.23S
FLAGSTAFF      CLEAR     57  34  41 W3        30.39S
PAYSON         CLEAR     70  39  32 CALM      30.25S
PAGE           CLEAR     77  31  18 CALM      30.16R
$$

AZZ009>014-017-221000-
NORTHEAST ARIZONA

CITY           SKY/WX    TMP DP  RH WIND       PRES   REMARKS
WINSLOW        CLEAR     68  37  32 SE3       30.22R
SAINT JOHNS    CLOUDY    77  40  26 W8        30.26S
WINDOW ROCK    MOCLDY    63  36  36 NE3       30.36R
SHOW LOW       MOCLDY    64  39  39 CALM      30.35F
$$

AZZ023-221000-
GREATER PHOENIX AREA

CITY           SKY/WX    TMP DP  RH WIND       PRES   REMARKS
PHOENIX        CLEAR     91  51  25 SW3       29.88S
BUCKEYE          N/A     82  52  34 W3        29.89S
LUKE AFB       NOT AVBL
DEER VALLEY    CLEAR     85  43  22 CALM      29.91S
SCOTTSDALE     CLEAR     89  50  26 CALM      29.92F
MESA-GATEWAY   CLEAR     82  45  26 S5        29.93S
$$

AZZ027-028-221000-
SOUTHWEST MARICOPA COUNTY AND PINAL COUNTY

CITY           SKY/WX    TMP DP  RH WIND       PRES   REMARKS
CASA GRANDE    CLEAR     82  48  30 CALM      29.94S
$$

AZZ503-504-507>509-221000-
SOUTHEAST ARIZONA

CITY           SKY/WX    TMP DP  RH WIND       PRES   REMARKS
TUCSON         PTCLDY    86  42  21 NW5       30.03S
DAVIS-MONTHAN  CLEAR     79  50  35 S2        30.01S
NOGALES        PTCLDY    74  56  53 E6        30.12F
SIERRA VISTA   PTCLDY    77  43  29 SW7       30.18F
DOUGLAS        PTCLDY    75  61  61 E3        30.13F
SAFFORD        PTCLDY    83  40  21 N6        30.03S
$$

AZZ020-021-025-026-031-221000-
SOUTHWEST ARIZONA

CITY           SKY/WX    TMP DP  RH WIND       PRES   REMARKS
YUMA           CLEAR     85  51  31 W5        29.86S
$$

CAZ031-033-041-043-047-048-061-221000-
SOUTHERN CALIFORNIA

CITY           SKY/WX    TMP DP  RH WIND       PRES   REMARKS
DOWNTOWN L.A.  CLEAR     67  61  81 CALM      30.01S
L.A. AIRPORT   PTCLDY    67  62  84 CALM      30.01S
SAN DIEGO      CLOUDY    70  62  76 N5        30.03R
BURBANK        CLEAR     67  59  75 CALM      30.02S
ONTARIO        PTCLDY    67  59  75 W5        30.02S
RIVERSIDE      CLEAR     69  59  70 CALM      30.02S
PALM SPRINGS   CLEAR     83  56  39 CALM      29.91R
EL CENTRO NAS  CLEAR     81  42  25 N5        29.83F
IMPERIAL       CLEAR     84  42  22 N7        29.84S
BLYTHE         CLEAR     87  37  17 S6        29.86F
NEEDLES        CLEAR     89  26  10 W7        29.90R
$$

NVZ020-UTZ003-221000-
SOUTHERN NEVADA-UTAH

CITY           SKY/WX    TMP DP  RH WIND       PRES   REMARKS
LAS VEGAS      CLEAR     84  35  17 S10       29.94S
SALT LAKE CITY PTCLDY    69  48  47 CALM      30.12R
$$

NMZ009-TXZ055-221000-
NEW MEXICO-WEST TEXAS

CITY           SKY/WX    TMP DP  RH WIND       PRES   REMARKS
ALBUQUERQUE    CLOUDY    79  50  36 E9        30.22F
EL PASO        PTCLDY    79  58  48 SE10      30.09S
$$


........................KEY........................
SKY/WX - SKY CONDITION/WEATHER
TMP    - TEMPERATURE IN FAHRENHEIT
DP     - DEW POINT IN FAHRENHEIT
RH     - RELATIVE HUMIDITY IN PERCENT
WIND   - DIRECTION AND SPEED IN MILES PER HOUR (MPH)
VRB    - VARIABLE WIND DIRECTION
PRES   - MEAN SEA LEVEL PRESSURE IN INCHES OF MERCURY
         F - FALLING PRESSURE   R - RISING PRESSURE
         S - STEADY PRESSURE
VSB    - VISIBILITY IN MILES
HX     - HEAT INDEX IN FAHRENHEIT
WCI    - WIND CHILL INDEX IN FAHRENHEIT
TC     - TEMPERATURE IN CELSIUS WHICH IS ALSO KNOWN AS
         TEMPERATURE IN CENTIGRADE
AFB    - AIR FORCE BASE
         LUKE AFB IS LUKE AIR FORCE BASE
         DAVIS-MONTHAN IS DAVIS-MONTHAN AIR FORCE BASE
NAS    - NAVAL AIR STATION
         EL CENTRO NAS IS EL CENTRO NAVAL AIR STATION
N/A    - NOT AVAILABLE



USA.gov is the U.S. government's official web portal to all federal, state and local government web resources and services.